| time (UTC) | temp F | wind direction | speed MPH | gust MPH | rain 1hr in | rain 24hr in | rain mn in | humidity % | barometer mb |
| 20260906114832 | 70 | 77 | 0.0 | 0.0 | 0.00 | 1.19 | 0.00 | 96 | 1010.2 |
| 20260906113336 | 70 | 77 | 0.0 | 0.0 | 0.00 | 1.19 | 0.00 | 95 | 1009.9 |
| 20260906111825 | 70 | 77 | 0.0 | 0.0 | 0.00 | 1.19 | 0.00 | 95 | 1009.7 |
| 20260906110331 | 70 | 77 | 0.0 | 0.0 | 0.00 | 1.19 | 0.00 | 95 | 1009.6 |
| 20260906104837 | 70 | 77 | 0.0 | 0.0 | 0.00 | 1.19 | 0.00 | 95 | 1009.2 |
| 20260906103326 | 70 | 77 | 0.0 | 0.0 | 0.00 | 1.19 | 0.00 | 95 | 1009.3 |
| 20260906101831 | 70 | 77 | 0.0 | 0.0 | 0.00 | 1.19 | 0.00 | 95 | 1009.4 |
| 20260906100328 | 70 | 119 | 0.0 | 0.0 | 0.00 | 1.19 | 0.00 | 95 | 1009.2 |
| 20260906094827 | 70 | 118 | 0.0 | 2.0 | 0.00 | 1.19 | 0.00 | 95 | 1009.3 |
| 20260906093344 | 70 | 128 | 0.0 | 1.0 | 0.00 | 1.19 | 0.00 | 95 | 1009.4 |
| 20260906091850 | 70 | 80 | 0.0 | 0.0 | 0.00 | 1.19 | 0.00 | 95 | 1009.5 |
| 20260906090334 | 70 | 203 | 0.0 | 2.0 | 0.00 | 1.19 | 0.00 | 95 | 1009.4 |
| 20260906084858 | 70 | 213 | 0.0 | 2.0 | 0.00 | 1.19 | 0.00 | 95 | 1009.4 |
| 20260906083343 | 70 | 121 | 0.0 | 2.0 | 0.00 | 1.19 | 0.00 | 94 | 1009.2 |
| 20260906081830 | 70 | 216 | 0.0 | 3.0 | 0.00 | 1.19 | 0.00 | 94 | 1009.0 |
| 20260906080326 | 70 | 164 | 0.0 | 2.0 | 0.00 | 1.19 | 0.00 | 94 | 1009.4 |
| 20260906074830 | 70 | 133 | 0.0 | 2.0 | 0.00 | 1.19 | 0.00 | 94 | 1009.3 |
| 20260906073328 | 70 | 200 | 0.0 | 2.0 | 0.00 | 1.19 | 0.00 | 94 | 1009.5 |
| 20260906071825 | 71 | 172 | 0.0 | 2.0 | 0.00 | 1.19 | 0.00 | 94 | 1009.8 |
| 20260906070331 | 71 | 149 | 2.0 | 4.0 | 0.00 | 1.19 | 0.00 | 94 | 1010.0 |
| 20260906064826 | 71 | 61 | 1.0 | 3.0 | 0.00 | 1.19 | 0.00 | 93 | 1010.2 |
| 20260906063331 | 71 | 78 | 0.0 | 3.0 | 0.37 | 1.19 | 0.00 | 93 | 1010.0 |
| 20260906061827 | 71 | 60 | 1.0 | 4.0 | 0.50 | 1.19 | 0.00 | 92 | 1009.8 |
| 20260906060329 | 71 | 184 | 0.0 | 5.0 | 0.50 | 1.19 | 0.00 | 92 | 1009.8 |
| 20260906054833 | 72 | 235 | 4.0 | 7.0 | 0.50 | 1.19 | 1.19 | 92 | 1010.3 |
| 20260906053357 | 72 | 22 | 3.0 | 12.0 | 0.61 | 0.82 | 0.82 | 91 | 1011.0 |
| 20260906051841 | 73 | 66 | 2.0 | 10.0 | 0.69 | 0.69 | 0.69 | 90 | 1010.5 |
| 20260906050329 | 74 | 141 | 5.0 | 14.0 | 0.69 | 0.69 | 0.69 | 90 | 1011.1 |
| 20260906044833 | 75 | 57 | 2.0 | 12.0 | 0.69 | 0.69 | 0.69 | 85 | 1010.5 |
| 20260906043338 | 79 | 71 | 7.0 | 13.0 | 0.18 | 0.18 | 0.21 | 80 | 1011.1 |
| 20260906041840 | 80 | 47 | 2.0 | 14.0 | 0.00 | 0.00 | 0.00 | 76 | 1010.5 |
| 20260906040328 | 80 | 78 | 5.0 | 13.0 | 0.00 | 0.00 | 0.00 | 74 | 1009.7 |
| 20260906034833 | 79 | 82 | 3.0 | 12.0 | 0.00 | 0.00 | 0.00 | 74 | 1009.7 |
| 20260906033338 | 78 | 28 | 3.0 | 9.0 | 0.00 | 0.00 | 0.00 | 85 | 1010.1 |
| 20260906031842 | 78 | 336 | 1.0 | 2.0 | 0.00 | 0.00 | 0.00 | 83 | 1009.6 |
| 20260906030345 | 78 | 242 | 0.0 | 3.0 | 0.00 | 0.00 | 0.00 | 82 | 1009.2 |
| 20260906024831 | 79 | 229 | 1.0 | 3.0 | 0.00 | 0.00 | 0.00 | 80 | 1009.1 |
| 20260906023329 | 80 | 211 | 2.0 | 3.0 | 0.00 | 0.00 | 0.00 | 80 | 1008.9 |
| 20260906021847 | 80 | 211 | 1.0 | 4.0 | 0.00 | 0.00 | 0.00 | 76 | 1008.6 |
| 20260906020331 | 81 | 53 | 0.0 | 2.0 | 0.00 | 0.00 | 0.00 | 71 | 1008.3 |
| 20260906014839 | 82 | 56 | 1.0 | 4.0 | 0.00 | 0.00 | 0.00 | 71 | 1008.1 |
| 20260906013325 | 82 | 201 | 0.0 | 2.0 | 0.00 | 0.00 | 0.00 | 71 | 1008.2 |
| 20260906011848 | 82 | 182 | 1.0 | 2.0 | 0.00 | 0.00 | 0.00 | 70 | 1008.3 |
| 20260906010334 | 83 | 243 | 1.0 | 7.0 | 0.00 | 0.00 | 0.00 | 70 | 1008.6 |
| 20260906004859 | 82 | 111 | 2.0 | 15.0 | 0.00 | 0.00 | 0.00 | 70 | 1009.0 |
| 20260906003324 | 83 | 208 | 9.0 | 21.0 | 0.00 | 0.00 | 0.00 | 64 | 1008.7 |
| 20260906001829 | 87 | 246 | 7.0 | 17.0 | 0.00 | 0.00 | 0.00 | 61 | 1008.6 |
| 20260906000326 | 92 | 280 | 2.0 | 6.0 | 0.00 | 0.00 | 0.00 | 53 | 1008.5 |
| 20260905234843 | 94 | 109 | 3.0 | 6.0 | 0.00 | 0.00 | 0.00 | 50 | 1008.1 |
| 20260905233345 | 96 | 60 | 2.0 | 5.0 | 0.00 | 0.00 | 0.00 | 48 | 1008.1 |
| 20260905231832 | 100 | 159 | 2.0 | 9.0 | 0.00 | 0.00 | 0.00 | 46 | 1007.8 |
| 20260905230337 | 103 | 221 | 1.0 | 3.0 | 0.00 | 0.00 | 0.00 | 40 | 1007.7 |
| 20260905224843 | 102 | 263 | 1.0 | 4.0 | 0.00 | 0.00 | 0.00 | 40 | 1007.7 |
| 20260905223332 | 102 | 198 | 3.0 | 6.0 | 0.00 | 0.00 | 0.00 | 40 | 1007.7 |
| 20260905221831 | 103 | 242 | 2.0 | 6.0 | 0.00 | 0.00 | 0.00 | 40 | 1007.6 |
| 20260905220338 | 103 | 202 | 4.0 | 7.0 | 0.00 | 0.00 | 0.00 | 39 | 1007.7 |
| 20260905214842 | 104 | 229 | 3.0 | 8.0 | 0.00 | 0.00 | 0.00 | 39 | 1007.8 |
| 20260905213325 | 104 | 210 | 2.0 | 7.0 | 0.00 | 0.00 | 0.00 | 39 | 1007.7 |
| 20260905211830 | 105 | 340 | 2.0 | 8.0 | 0.00 | 0.00 | 0.00 | 38 | 1007.9 |
| 20260905210329 | 106 | 350 | 2.0 | 7.0 | 0.00 | 0.00 | 0.00 | 38 | 1008.0 |
| 20260905204829 | 106 | 327 | 2.0 | 7.0 | 0.00 | 0.00 | 0.00 | 37 | 1008.1 |
| 20260905203324 | 105 | 32 | 1.0 | 5.0 | 0.00 | 0.00 | 0.00 | 38 | 1008.3 |
| 20260905201825 | 103 | 72 | 2.0 | 7.0 | 0.00 | 0.00 | 0.00 | 41 | 1008.3 |
| 20260905200331 | 103 | 39 | 1.0 | 6.0 | 0.00 | 0.00 | 0.00 | 41 | 1008.8 |
| 20260905194830 | 102 | 327 | 1.0 | 7.0 | 0.00 | 0.00 | 0.00 | 42 | 1009.1 |
| 20260905193348 | 103 | 327 | 4.0 | 7.0 | 0.00 | 0.00 | 0.00 | 42 | 1009.2 |
| 20260905191827 | 104 | 229 | 2.0 | 4.0 | 0.00 | 0.00 | 0.00 | 42 | 1009.5 |
| 20260905190331 | 104 | 335 | 3.0 | 7.0 | 0.00 | 0.00 | 0.00 | 41 | 1009.6 |
| 20260905184828 | 103 | 234 | 1.0 | 6.0 | 0.00 | 0.00 | 0.00 | 42 | 1009.7 |
| 20260905183347 | 102 | 34 | 2.0 | 6.0 | 0.00 | 0.00 | 0.00 | 46 | 1010.1 |
| 20260905181830 | 101 | 27 | 1.0 | 5.0 | 0.00 | 0.00 | 0.00 | 47 | 1010.3 |
| 20260905180338 | 102 | 14 | 4.0 | 9.0 | 0.00 | 0.00 | 0.00 | 45 | 1010.5 |
| 20260905174840 | 102 | 132 | 3.0 | 5.0 | 0.00 | 0.00 | 0.00 | 45 | 1010.7 |
| 20260905173325 | 101 | 343 | 1.0 | 6.0 | 0.00 | 0.00 | 0.00 | 47 | 1010.7 |
| 20260905171849 | 101 | 329 | 1.0 | 6.0 | 0.00 | 0.00 | 0.00 | 49 | 1010.8 |
| 20260905170329 | 100 | 333 | 1.0 | 5.0 | 0.00 | 0.00 | 0.00 | 47 | 1011.0 |
| 20260905164826 | 99 | 19 | 1.0 | 5.0 | 0.00 | 0.00 | 0.00 | 51 | 1011.2 |
| 20260905163330 | 98 | 60 | 2.0 | 5.0 | 0.00 | 0.00 | 0.00 | 53 | 1011.4 |
| 20260905161827 | 96 | 140 | 2.0 | 5.0 | 0.00 | 0.00 | 0.00 | 56 | 1011.6 |
| 20260905160342 | 93 | 189 | 1.0 | 4.0 | 0.00 | 0.00 | 0.00 | 60 | 1011.8 |
| 20260905154830 | 91 | 212 | 2.0 | 4.0 | 0.00 | 0.00 | 0.00 | 64 | 1012.0 |
| 20260905153329 | 89 | 46 | 2.0 | 4.0 | 0.00 | 0.00 | 0.00 | 67 | 1012.0 |
| 20260905151835 | 86 | 207 | 2.0 | 3.0 | 0.00 | 0.00 | 0.00 | 73 | 1012.0 |
| 20260905150336 | 84 | 220 | 0.0 | 0.0 | 0.00 | 0.00 | 0.00 | 78 | 1012.0 |
| 20260905144824 | 82 | 193 | 0.0 | 0.0 | 0.00 | 0.00 | 0.00 | 78 | 1012.2 |
| 20260905143330 | 81 | 193 | 0.0 | 0.0 | 0.00 | 0.00 | 0.00 | 81 | 1012.1 |
| 20260905141827 | 80 | 193 | 0.0 | 0.0 | 0.00 | 0.00 | 0.00 | 84 | 1012.2 |
| 20260905140334 | 79 | 193 | 0.0 | 0.0 | 0.00 | 0.00 | 0.00 | 85 | 1012.2 |
| 20260905134823 | 78 | 148 | 0.0 | 0.0 | 0.00 | 0.00 | 0.00 | 87 | 1012.2 |
| 20260905133326 | 77 | 148 | 0.0 | 0.0 | 0.00 | 0.00 | 0.00 | 88 | 1012.3 |
| 20260905131831 | 77 | 148 | 0.0 | 0.0 | 0.00 | 0.00 | 0.00 | 90 | 1012.3 |
| 20260905130325 | 76 | 245 | 0.0 | 0.0 | 0.00 | 0.00 | 0.00 | 92 | 1012.4 |
| 20260905124843 | 75 | 85 | 0.0 | 0.0 | 0.00 | 0.00 | 0.00 | 94 | 1012.5 |
| 20260905123326 | 74 | 85 | 0.0 | 0.0 | 0.00 | 0.00 | 0.00 | 95 | 1012.4 |
| 20260905121851 | 73 | 85 | 0.0 | 1.0 | 0.00 | 0.00 | 0.00 | 94 | 1012.2 |
| 20260905120347 | 72 | 155 | 0.0 | 0.0 | 0.00 | 0.00 | 0.00 | 94 | 1012.1 |